Location: Podia
(1.5569°N, 32.3469°E)
Time: 17:10:59
(UTC+00:00)

Cosmos 1666 - Pass Details

Date: 01 June 2020
Orbit: 497 x 521 km, 82.5° (Epoch: 05 July)

Event Time Altitude Azimuth Distance (km) Brightness Sun altitude
Rises 17:05:36 0° 360° (N) 2,606 6.6 -17.2°
Reaches altitude 10° 17:07:43 10° 2° (N) 1,719 5.6 -17.6°
Maximum altitude 17:11:28 71° 85° (E) 537 2.5 -18.5°
Enters shadow 17:12:42 40° 159° (SSE) 757 3.1 -18.8°
